Flag for Canada Weather past 2 weeks in Longueuil, Quebec, Canada

Now
68 °F

Mild.


Feels Like: 68 °F
Forecast: 58 / 74 °F
Wind: 3 mph from West

Location: Mc Tavish

Current Time: Jul 24, 2014 at 12:24:22 PM

Latest Report: Jul 24, 2014 at 12:00 PM


Visibility: N/A

Pressure: 29.94 "Hg

Humidity: 44%

Dew point: 46 °F

Location of LongueuilLocation

Historic Weather in Longueuil — Graph

°F

Longueuil temperature yesterday

Maximum temperature yesterday: 80 °F (at 3:00 PM)
Minimum temperature yesterday: 70 °F (at 11:00 PM)
Average temperature yesterday: 75 °F

Past Weeks' High & Low Weather Summary

 TemperatureHumidityPressure
High85 °F (Jul 21, 4:00 PM)97% (Jul 13, 6:00 PM)30.27 "Hg (Jul 13, 6:00 PM)
Low58 °F (Jul 17, 5:00 AM)31% (Jul 20, 6:00 PM)29.67 "Hg (Jul 13, 7:00 PM)
Average71 °F63%29.98 "Hg
* Reported Jul 9 11:00 AM — Jul 24 11:00 AM, Longueuil, Weather by CustomWeather, © 2014

Note: Actual official high and low records may vary slightly from our data, if they occured in-between our weather recording intervals... More about our weather records

Advertising

Longueuil weather history for previous 24 hours

 ConditionsComfort  
Time TempWeatherWind HumidityBarometerVisibility
11:00 AM
Jul 24
67 °FMild.2 mph44%29.96 "HgN/A
10:00 AM65 °FMild.3 mph46%29.96 "HgN/A
9:00 AM64 °FMild.2 mph51%29.96 "HgN/A
8:00 AM61 °FRefreshingly cool.2 mph55%29.96 "HgN/A
7:00 AM59 °FCool.1 mph61%29.95 "HgN/A
6:00 AM59 °FRefreshingly cool.1 mph60%29.93 "HgN/A
5:00 AM60 °FRefreshingly cool.2 mph58%29.91 "HgN/A
4:00 AM61 °FRefreshingly cool.2 mph56%29.89 "HgN/A
3:00 AM63 °FMild.3 mph56%29.88 "HgN/A
2:00 AM64 °FMild.3 mph53%29.88 "HgN/A
1:00 AM67 °FMild.2 mph49%29.87 "HgN/A
12:00 AM67 °FMild.2 mph52%29.87 "HgN/A
11:00 PM
Jul 23
70 °FMild.1 mph54%29.86 "HgN/A
10:00 PM71 °FMild.2 mph53%29.84 "HgN/A
9:00 PM72 °FMild.2 mph51%29.82 "HgN/A
8:00 PM73 °FMild.2 mph53%29.81 "HgN/A
7:00 PM74 °FMild.3 mph54%29.78 "HgN/A
6:00 PM76 °FMild.2 mph52%29.75 "HgN/A
5:00 PM78 °FWarm.3 mph56%29.74 "HgN/A
4:00 PM80 °FWarm.5 mph62%29.73 "HgN/A
3:00 PM80 °FWarm.3 mph65%29.71 "HgN/A
2:00 PM77 °FWarm.2 mph78%29.72 "HgN/A
1:00 PM75 °FMild.6 mph87%29.72 "HgN/A
12:00 PM73 °FMild.5 mph91%29.73 "HgN/A
Weather by CustomWeather, © 2014

See weather overviewHow to use our weather pages